Hoquiam, WA
on Saturday, January 5, 2013

Saturday
Previous Day Next Day
Daily Summary
 ActualAverageRecord
Temperature
Mean Temperature °F 42°F  
Max Temperature 46°F 46°F 54°F (2006)
Min Temperature 39°F 38°F 22°F (1982)
Degree Days
Heating Degree Days 22 23  
Month to date heating degree days 115  
Cooling Degree Days 0 0  
Month to date cooling degree days 0  
Year to date cooling degree days 0  
Moisture
Dew Point 40°F   
Average Humidity 90    
Maximum Humidity 100    
Minimum Humidity 73    
Precipitation
Precipitation 0.07 in 0.35 in 2.81 in (1956)
Month to date precipitation 1.72  
Year to date precipitation 1.72  
Wind
Wind Speed 7 mph   
Max Wind Speed 15 mph   
Max Gust Speed mph   
Visibility 9 miles   
Events Rain   

Key: T is trace of precipitation, MM is missing value
Source: NWS Daily Summary
Time(PST)TemperatureDew PointHumidity Pressure Visibility Wind DirectionWind SpeedGust SpeedPrecipitationEvents Conditions
12:53 AM 44.1°F 42.1°F 93% 30.14 in 10.0 miles ENE 6.9 mph - N/A   Overcast
1:53 AM 44.1°F 42.1°F 93% 30.16 in 10.0 miles East 6.9 mph - N/A   Overcast
2:53 AM 44.1°F 41.0°F 89% 30.16 in 8.0 miles ENE 9.2 mph - 0.00 in   Overcast
3:53 AM 43.0°F 42.1°F 97% 30.14 in 9.0 miles ENE 8.1 mph - N/A   Overcast
4:53 AM 43.0°F 42.1°F 97% 30.13 in 10.0 miles ENE 6.9 mph - N/A   Overcast
5:53 AM 43.0°F 41.0°F 93% 30.12 in 10.0 miles ENE 10.4 mph - N/A   Overcast
6:53 AM 43.0°F 39.9°F 89% 30.11 in 10.0 miles ENE 13.8 mph - N/A   Overcast
7:53 AM 43.0°F 39.9°F 89% 30.09 in 10.0 miles ENE 15.0 mph - N/A   Mostly Cloudy
8:53 AM 43.0°F 39.0°F 86% 30.12 in 10.0 miles ENE 10.4 mph - N/A   Partly Cloudy
9:53 AM 44.1°F 39.0°F 82% 30.16 in 10.0 miles ENE 9.2 mph - N/A   Clear
10:53 AM 45.0°F 37.9°F 76% 30.15 in 10.0 miles ENE 12.7 mph - N/A   Mostly Cloudy
11:53 AM 45.0°F 39.0°F 80% 30.15 in 10.0 miles East 9.2 mph - N/A   Partly Cloudy
12:53 PM 46.0°F 37.9°F 73% 30.12 in 10.0 miles ENE 10.4 mph - N/A   Overcast
1:53 PM 45.0°F 37.9°F 76% 30.11 in 10.0 miles ENE 11.5 mph - N/A   Overcast
2:53 PM 45.0°F 37.9°F 76% 30.11 in 10.0 miles ENE 9.2 mph - N/A   Overcast
3:53 PM 44.1°F 39.0°F 82% 30.12 in 9.0 miles East 9.2 mph - 0.00 in Rain Light Rain
4:16 PM 44.6°F 39.2°F 81% 30.10 in 10.0 miles ENE 8.1 mph - 0.01 in   Overcast
4:51 PM 42.8°F 39.2°F 87% 30.10 in 10.0 miles ENE 5.8 mph - 0.01 in Rain Light Rain
4:53 PM 43.0°F 39.9°F 89% 30.11 in 10.0 miles ENE 5.8 mph - 0.01 in Rain Light Rain
5:53 PM 43.0°F 41.0°F 93% 30.14 in 3.0 miles Calm Calm - 0.01 in Rain Light Rain
6:37 PM 42.8°F 42.8°F 100% 30.13 in 7.0 miles Calm Calm - 0.01 in   Overcast
6:50 PM 42.8°F 42.8°F 100% 30.12 in 5.0 miles Calm Calm - 0.01 in Rain Light Rain
6:53 PM 43.0°F 41.0°F 93% 30.13 in 5.0 miles Calm Calm - 0.02 in Rain Light Rain
7:13 PM 42.8°F 41.0°F 93% 30.12 in 9.0 miles East 4.6 mph - 0.00 in   Overcast
7:53 PM 42.1°F 41.0°F 96% 30.14 in 10.0 miles Calm Calm - 0.00 in   Mostly Cloudy
8:04 PM 42.8°F 39.2°F 87% 30.13 in 10.0 miles Calm Calm - N/A   Scattered Clouds
8:48 PM 41.0°F 39.2°F 93% 30.14 in 10.0 miles South 4.6 mph - N/A   Mostly Cloudy
8:53 PM 41.0°F 39.9°F 96% 30.16 in 10.0 miles South 3.5 mph - N/A   Mostly Cloudy
9:05 PM 41.0°F 39.2°F 93% 30.15 in 8.0 miles South 5.8 mph - N/A   Overcast
9:53 PM 41.0°F 41.0°F 100% 30.16 in 10.0 miles Calm Calm - N/A   Overcast
10:10 PM 41.0°F 39.2°F 93% 30.15 in 7.0 miles Calm Calm - N/A   Overcast
10:53 PM 39.9°F 39.9°F 100% 30.17 in 8.0 miles Calm Calm - N/A   Overcast
11:04 PM 39.2°F 39.2°F 100% 30.16 in 4.0 miles Calm Calm - 0.01 in Rain Light Rain
11:14 PM 39.2°F 39.2°F 100% 30.16 in 5.0 miles East 3.5 mph - 0.03 in Rain Light Rain
11:49 PM 41.0°F 39.2°F 93% 30.16 in 8.0 miles Calm Calm - 0.03 in   Overcast
11:53 PM 41.0°F 39.9°F 96% 30.17 in 7.0 miles Calm Calm - 0.03 in Rain Light Rain
Moon Phase
Jan. 05 Jan. 11 Jan. 18 Jan. 26 Feb. 03
Sunrise:08:01 AM (PST) Moon Rise:01:00 AM (PST)1/5
Sunset:04:41 PM (PST) Moon Set:11:46 AM (PST)1/5

Copyright © 2014 The Weather Underground, Inc.